Powrót do katalogu

STARLINK-37720

AktywnyŁącznośćSSO
NORAD 69129·PAYLOAD·🇺🇸 United States

Wystrzelony May 20, 2026 z Vandenberg Space Force Base

Loading…

Następne Przeloty (najbliższe 24 godziny)

TLE

ŚwieżeSource: CelesTrak SupGP

Epoka: Sep 15, 2026, 03:37 UTC

1 69129C 26110F   26258.15118056 -.00046285  00000+0 -14364-2 0  2581
2 69129  97.2855  93.2427 0001764  93.0736 274.7164 15.33470396    11

Śledź STARLINK-37720 w czasie rzeczywistym z AllMySat

Download on the App Store